Regional Weather Roundup
Issued by NWS Midland/Odessa, TX

Skip options and go directly to product.
Home | Oldest Version | Previous Version | Current Version | All | Graphics & Text | Save Text | Print | Product List | Glossary On

Skip product version selection by date and time.   
813
ASUS44 KMAF 242310
RWRMAF
MIDLAND AREA WEATHER ROUNDUP
NATIONAL WEATHER SERVICE MIDLAND TX
600 PM CDT FRI JUN 24 2016

...IN SOUTHWEST TEXAS AND SOUTHEAST NEW MEXICO...

CITY           SKY/WX    TMP DP  RH WIND       PRES   REMARKS
ALPINE         SUNNY     90  50  24 E3        30.09F
ANDREWS        FAIR      94  52  24 S13G21    29.98F
ARTESIA        SUNNY     97  54  23 S14G23    29.95F
BIG SPRING     SUNNY     90  57  32 SE14      29.99F
CARLSBAD       SUNNY     97  47  18 SE13      29.92F
DRYDEN           N/A     94  60  32 SE22G29   29.91F
FORT STOCKTON  SUNNY     91  53  27 SE18G25   29.96F
GUAD PASS      SUNNY     89  45  21 E13G28      N/A
HOBBS          SUNNY     93  46  20 SE17G23   30.00F
MARFA          SUNNY    N/A N/A N/A SE14G22   30.07F
MIDLAND AIRPK  SUNNY     94  54  26 SE15      29.97F
MIDLAND INTL   SUNNY     94  54  25 SE21      29.96F
ODESSA         SUNNY     94  53  25 S14       29.98F
PECOS          SUNNY     97  50  20 SE18G24   29.91F
PRESIDIO       FAIR     100  49  18 NE9G21    29.88F
SEMINOLE       SUNNY     94  49  21 S16G23    30.00S
SNYDER           N/A     91  61  37 SE13      29.98F
WINK           SUNNY     95  52  23 SE16G23   29.92F
$$
...OTHER STATIONS IN TEXAS...

CITY           SKY/WX    TMP DP  RH WIND       PRES   REMARKS
ABILENE        MOSUNNY   89  64  43 S14       29.97F
AMARILLO       MOSUNNY   94  56  27 S23G31    29.98F
AUSTIN         CLOUDY    89  70  53 SE16      29.96F
BROWNSVILLE    PTSUNNY   90  75  61 SE18      29.95F HX 100
CORPUS CHRISTI PTSUNNY   90  74  59 SE17G24   29.95F
DALLAS FTW     MOSUNNY   94  64  37 S16       29.95F
DEL RIO        MOSUNNY   95  65  37 E15G25    29.88F
EL PASO        MOSUNNY   99  42  14 SE9       29.92F
HOUSTON INT    CLOUDY    86  75  69 E9        30.00F
LUBBOCK        MOSUNNY   93  54  26 S18G26    29.99F
SAN ANGELO     MOSUNNY   93  60  33 S14G20    29.95F
SAN ANTONIO    CLOUDY    87  71  58 SE20      29.97F
WACO           MOSUNNY   92  65  40 S13       29.97F
WICHITA FALLS  NOT AVBL
$$
...OTHER LOCATIONS IN NEW MEXICO...

CITY           SKY/WX    TMP DP  RH WIND       PRES   REMARKS
ALAMAGORDO     MOSUNNY   99  43  14 SW13G20   29.96F
ALBUQUERQUE    CLOUDY    93  42  17 SW28G35   30.03F
CANNON AFB     CLOUDY    91  52  26 S16G23    30.00F
CLOVIS         CLOUDY    93  54  26 S20       30.00F
HOLLOMAN AFB   MOSUNNY   98  42  14 S13       29.93F
ROSWELL        SUNNY     98  51  20 S13G23    29.95F
RUIDOSO          N/A     68  50  52 CALM      30.25R
SANTA FE       CLOUDY    91  36  14 W15       30.09F
TRUTH OR CONSE CLOUDY    92  40  16 W8G22     30.03R
TUCUMCARI      SUNNY     99  46  16 S16G23    29.92F
$$

USA.gov is the U.S. government's official web portal to all federal, state and local government web resources and services.